This demonstration page uses our WeatherBlox Daily Observations layout. Learn more.

Left ArrowRight Arrow

39.51506, -84.39828

Hourly Observations for September 5, 2021

Temp ( °F °C ) Dew Point ( °F °C ) Humidity (%) Winds ( mph kmh ) Pressure ( in mb ) Visibility ( mi km ) Precip ( " mm )
12:15 am 00:15 Cloudy 68 20 N/A N/A SW 7 11 29.87 1012 10 16 N/A
12:35 am 00:35 Cloudy 68 20 N/A N/A SW 5 7 29.87 1012 10 16 N/A
12:55 am 00:55 Cloudy 68 20 N/A N/A SW 7 11 29.87 1012 10 16 N/A
1:15 am 01:15 Cloudy with Haze 70 21 N/A N/A SW 8 13 29.87 1012 7 11 N/A
1:35 am 01:35 Cloudy 70 21 N/A N/A SW 9 15 29.86 1011 10 16 N/A
1:55 am 01:55 Cloudy 70 21 N/A N/A SW 9 15 29.86 1011 10 16 N/A
2:15 am 02:15 Cloudy 70 21 N/A N/A SW 9 15 29.86 1011 10 16 N/A
2:35 am 02:35 Cloudy 70 21 N/A N/A SW 8 13 29.86 1011 10 16 N/A
2:55 am 02:55 Cloudy 70 21 N/A N/A SW 8 13 29.85 1011 10 16 N/A
3:15 am 03:15 Cloudy with Light Rain 70 21 N/A N/A SW 9 15 29.85 1011 7 11 N/A
3:35 am 03:35 Cloudy 68 20 N/A N/A SW 8 13 29.84 1011 7 11 N/A
3:55 am 03:55 Cloudy with Light Rain 68 20 N/A N/A SW 8 13 29.84 1011 4 6 N/A
4:15 am 04:15 Cloudy with Light Rain 68 20 N/A N/A SW 7 11 29.84 1011 5 8 N/A
4:35 am 04:35 Cloudy with Mist and Fog 68 20 N/A N/A SSW 8 13 29.83 1010 4 6 N/A
4:55 am 04:55 Cloudy with Drizzle 68 20 N/A N/A SSW 6 9 29.82 1010 5 8 N/A
5:15 am 05:15 Cloudy with Drizzle 68 20 N/A N/A SW 8 13 29.82 1010 3 5 N/A
5:35 am 05:35 Cloudy with Haze 68 20 N/A N/A SW 7 11 29.82 1010 5 8 N/A
5:55 am 05:55 Cloudy with Haze 68 20 N/A N/A SW 5 7 29.82 1010 4 6 N/A
6:15 am 06:15 Cloudy with Rain 68 20 N/A N/A SW 5 7 29.82 1010 4 6 N/A
6:35 am 06:35 Cloudy with Haze 68 20 N/A N/A SW 5 7 29.82 1010 7 11 0.01 0.25
6:55 am 06:55 Cloudy 68 20 N/A N/A SW 5 7 29.83 1010 7 11 0.01 0.25
7:15 am 07:15 Cloudy 68 20 N/A N/A WSW 6 9 29.84 1011 7 11 N/A
7:35 am 07:35 Cloudy with Haze 68 20 N/A N/A WSW 3 6 29.84 1011 7 11 N/A
7:55 am 07:55 Cloudy 70 21 N/A N/A N N/A 29.85 1011 10 16 N/A
8:15 am 08:15 Cloudy 70 21 N/A N/A N N/A 29.85 1011 10 16 N/A
8:35 am 08:35 Cloudy 70 21 N/A N/A NNW 5 7 29.86 1011 10 16 N/A
8:55 am 08:55 Cloudy 70 21 N/A N/A NNW 5 7 29.87 1012 7 11 N/A
9:15 am 09:15 Cloudy 70 21 N/A N/A N 3 6 29.87 1012 10 16 N/A
9:35 am 09:35 Cloudy 71 21.7 70 21.3 98 98 NNW 7 11 29.87 1012 10 16 N/A
9:55 am 09:55 Cloudy 71 21.5 70 21 97 97 NNW 6 9 29.87 1012 7 11 N/A
10:15 am 10:15 Cloudy 71 21.7 71 21.4 98 98 NW 6 9 29.88 1012 10 16 N/A
10:35 am 10:35 Cloudy 72 22.2 71 21.4 95 95 NNW 6 9 29.88 1012 10 16 N/A
10:55 am 10:55 Mostly Cloudy 73 22.8 69 20.6 87 87 N 7 11 29.88 1012 10 16 N/A
11:15 am 11:15 Mostly Cloudy 73 22.7 70 20.9 90 90 NNW 6 9 29.88 1012 10 16 N/A
11:35 am 11:35 Mostly Cloudy 74 23.4 68 20.2 82 82 NNW 9 15 29.88 1012 10 16 N/A
11:55 am 11:55 Cloudy 73 22.8 67 19.7 83 83 NNW 8 13 29.89 1012 10 16 0.01 0.25
12:15 pm 12:15 Mostly Cloudy 75 24 68 20 78 78 NNW 8 13 29.89 1012 10 16 N/A
12:35 pm 12:35 Partly Cloudy 76 24.5 67 19.6 74 74 NNW 9 15 29.88 1012 10 16 N/A
12:55 pm 12:55 Mostly Cloudy 77 24.8 67 19.5 72 72 NW 10 17 29.88 1012 10 16 N/A
1:15 pm 13:15 Cloudy 77 24.8 66 19 70 70 NW 9 15 29.88 1012 10 16 N/A
1:35 pm 13:35 Cloudy 77 25.2 66 18.9 68 68 W 12 19 29.88 1012 10 16 N/A
1:55 pm 13:55 Mostly Cloudy 77 24.9 65 18.1 66 66 WNW 8 13 29.87 1012 10 16 N/A
2:15 pm 14:15 Partly Cloudy 78 25.4 63 17.4 61 61 WNW 9 15 29.87 1012 10 16 N/A
2:35 pm 14:35 Partly Cloudy 79 26.1 64 17.6 60 60 W 7 11 29.86 1011 10 16 N/A
2:55 pm 14:55 Partly Cloudy 80 26.4 62 16.6 55 55 NW 9 15 29.86 1011 10 16 N/A
3:15 pm 15:15 Sunny 79 26.3 64 17.6 59 59 WNW 12 19 29.85 1011 10 16 N/A
3:35 pm 15:35 Sunny 80 26.5 62 16.4 54 54 NNW 14 22 29.85 1011 10 16 N/A
3:55 pm 15:55 Partly Cloudy 80 26.5 62 16.5 54 54 NNW 13 20 29.85 1011 10 16 N/A
4:15 pm 16:15 Partly Cloudy 78 25.5 59 15.2 53 53 NNW 9 15 29.85 1011 10 16 N/A
4:35 pm 16:35 Sunny 79 26.1 58 14.7 50 50 NNW 12 19 29.85 1011 10 16 N/A
4:55 pm 16:55 Sunny 79 26 57 14.1 48 48 NW 10 17 29.86 1011 10 16 N/A
5:15 pm 17:15 Sunny 79 25.9 58 14.2 49 49 WNW 12 19 29.86 1011 10 16 N/A
5:35 pm 17:35 Sunny 79 25.9 57 13.7 47 47 NW 10 17 29.86 1011 10 16 N/A
5:55 pm 17:55 Sunny 78 25.5 56 13.2 47 47 NW 8 13 29.87 1012 10 16 N/A
6:15 pm 18:15 Sunny 77 24.8 57 14 51 51 N 7 11 29.87 1012 10 16 0.01 0.25
6:35 pm 18:35 Sunny 77 24.9 58 14.2 51 51 NNW 7 11 29.87 1012 10 16 0.01 0.25
6:55 pm 18:55 Sunny 76 24.7 58 14.6 53 53 NW 10 17 29.87 1012 10 16 0.01 0.25
7:15 pm 19:15 Sunny 75 23.9 59 14.8 57 57 NNW 5 7 29.88 1012 10 16 N/A
7:35 pm 19:35 Sunny 73 23 58 14.5 59 59 NW 7 11 29.89 1012 10 16 N/A
7:55 pm 19:55 Sunny 70 21 62 16.4 75 75 NNW 3 6 29.89 1012 10 16 N/A
8:15 pm 20:15 Clear 66 19.1 63 17.4 90 90 N N/A 29.90 1012 10 16 N/A
8:35 pm 20:35 Clear 66 18.9 63 17.2 90 90 N N/A 29.90 1012 10 16 N/A
8:55 pm 20:55 Clear 65 18.1 63 17.1 94 94 N N/A 29.91 1013 10 16 N/A
9:15 pm 21:15 Clear 64 17.8 63 17.3 97 97 N N/A 29.92 1013 10 16 N/A
9:35 pm 21:35 Clear 63 17 63 17 100 100 N N/A 29.92 1013 10 16 N/A
9:55 pm 21:55 Clear 62 16.9 62 16.8 99 99 N N/A 29.93 1014 10 16 N/A
10:15 pm 22:15 Clear 63 17 N/A N/A N N/A 29.93 1014 10 16 N/A
10:35 pm 22:35 Clear 61 16 N/A N/A N N/A 29.94 1014 10 16 N/A
10:55 pm 22:55 Clear 61 16 N/A N/A N N/A 29.94 1014 10 16 N/A
11:15 pm 23:15 Clear 61 16 N/A N/A N N/A 29.94 1014 10 16 N/A
11:35 pm 23:35 Clear 59 15 N/A N/A N N/A 29.95 1014 10 16 N/A
11:55 pm 23:55 Clear 59 15 N/A N/A N N/A 29.95 1014 10 16 N/A

Powered by AerisWeather